Location: Elstree
(51.6403°N, 0.2969°W)
Time: 01:56:00
(UTC+00:00)

Cosmos 2219 Rocket - Pass Details

Date: 03 March 2021
Orbit: 827 x 848 km, 71.0° (Epoch: 11 April)

Event Time Altitude Azimuth Distance (km) Brightness Sun altitude
Rises 19:25:05 0° 177° (S) 3,355 5.2 -16.2°
Reaches altitude 10° 19:27:42 10° 168° (SSE) 2,428 4.4 -16.6°
Maximum altitude 19:32:36 32° 106° (ESE) 1,384 2.8 -17.4°
Drops below altitude 10° 19:37:31 10° 45° (NE) 2,453 4.3 -18.1°
Sets 19:40:11 0° 36° (NE) 3,395 5.1 -18.5°
